Weather Roundup
Issued by NWS Chicago, IL

Home | Current Version | Previous Version | Graphics & Text | Print | Product List | Glossary On
Versions: 1 2 3 4 5 6 7 8 9 10 11 12 13 14 15 16 17 18 19 20 21 22 23 24 25 26 27 28 29 30 31 32 33 34 35 36 37 38 39 40 41 42 43 44 45 46 47 48 49 50
000
NZUS59 KLOT 030400
HRRLOT

CHICAGO AREA WEATHER ROUNDUP
NATIONAL WEATHER SERVICE CHICAGO/ROMEOVILLE IL
1000 PM CST MON MAR 02 2015

NOTE: "FAIR" INDICATES FEW OR NO CLOUDS BELOW 12,000 FEET WITH NO
SIGNIFICANT WEATHER AND/OR OBSTRUCTIONS TO VISIBILITY.

* THESE STATIONS ARE NOT UNDER NWS QUALITY CONTROL. THEY ALSO MAY NOT
  REPORT WEATHER SUCH AS PRECIPITATION OR FOG.

ILZ005-006-012>014-019>023-030500-
NORTHEAST ILLINOIS

CITY           SKY/WX    TMP DP  RH WIND       PRES   REMARKS
OHARE          CLOUDY    25  15  66 S8        30.29F WCI  16
MIDWAY         CLOUDY    28  14  55 S9        30.31F WCI  19
AURORA         CLOUDY    25  15  66 S6        30.30F WCI  18
LANSING*       CLOUDY    26  17  68 S6        30.32F WCI  19
WAUKEGAN       CLOUDY    26  17  68 S9        30.29F WCI  17
DUPAGE AIRPORT CLOUDY    24  16  71 S6        30.28F WCI  17
WHEELING       CLOUDY    27  14  58 S9        30.32F WCI  18
NORTHERLY IS     N/A     27  14  58 S7          N/A  WCI  20
$$

WIZ051-052-058>065-066-070>072-030500-
SOUTHEAST WISCONSIN

CITY           SKY/WX    TMP DP  RH WIND       PRES   REMARKS
MILWAUKEE      CLOUDY    25  16  68 S8        30.28F WCI  16
KENOSHA*       CLOUDY    26  18  71 SW6       30.28F WCI  19
RACINE*        CLOUDY    27  18  69 SW7       30.30F WCI  19
$$

INZ001>003-010>013-019-020-030500-
NORTHWEST INDIANA

CITY           SKY/WX    TMP DP  RH WIND       PRES   REMARKS
GARY*          CLOUDY    28  11  47 S6        30.32F WCI  22
MICHIGAN CITY* NOT AVBL
RENSSELAER*    NOT AVBL
$$

LMZ740>746-030500-
SOUTHERN LAKE MICHIGAN

STATION/POSITION TIME  SKY/WX   TEMP WIND        PRES    VSBY
                                AIR  DIR/SP/G
                 (UTC)          (F)  (DEG/KT/KT) (MB)    (MI)
HARRISON CRIB    0300            27  200/ 16/ 19   N/A
BURNHAM HARBOR   0400            27  190/  5/ 13   N/A
CALUMET HARBOR   0300            26  160/  5/  8 1025.2F
BURNS HARBOR     NOT AVBL
MICHIGAN CITY    0300            26  170/ 10/ 14   N/A
$$

ABBREVIATIONS USED IN REMARKS
   TC - TEMPERATURE IN CELSIUS
  WCI - WIND CHILL INDEX
   HX - HEAT INDEX
  VSB - VISIBILITY
$$


USA.gov is the U.S. government's official web portal to all federal, state and local government web resources and services.